Year,Month,Day,Hour,Minute,Value (Times are PST for windspeed in km/hr)
2010,04,02,00,00,11.20
2010,04,02,00,01,17.50
2010,04,02,00,02,19.00
2010,04,02,00,03,18.70
2010,04,02,00,04,11.70
2010,04,02,00,05,13.30
2010,04,02,00,06,13.10
2010,04,02,00,07,19.10
2010,04,02,00,08,18.20
2010,04,02,00,09,15.00
2010,04,02,00,10,17.50
2010,04,02,00,11,16.70
2010,04,02,00,12,18.00
2010,04,02,00,13,15.80
2010,04,02,00,14,15.20
2010,04,02,00,15,15.80
2010,04,02,00,16,18.80
2010,04,02,00,17,16.80
2010,04,02,00,18,19.20
2010,04,02,00,19,14.90
2010,04,02,00,20,16.10
2010,04,02,00,21,10.80
2010,04,02,00,22,23.00
2010,04,02,00,23,20.70
2010,04,02,00,24,15.80
2010,04,02,00,25,18.10
2010,04,02,00,26,14.60
2010,04,02,00,27,12.80
2010,04,02,00,28,14.60
2010,04,02,00,29,15.40
2010,04,02,00,30,17.40
2010,04,02,00,31,17.10
2010,04,02,00,32,11.30
2010,04,02,00,33,12.10
2010,04,02,00,34,13.60
2010,04,02,00,35,15.90
2010,04,02,00,36,14.50
2010,04,02,00,37,14.40
2010,04,02,00,38,15.10
2010,04,02,00,39,12.00
2010,04,02,00,40,19.10
2010,04,02,00,41,21.10
2010,04,02,00,42,21.30
2010,04,02,00,43,21.50
2010,04,02,00,44,18.20
2010,04,02,00,45,16.90
2010,04,02,00,46,21.50
2010,04,02,00,47,20.10
2010,04,02,00,48,17.50
2010,04,02,00,49,22.80
2010,04,02,00,50,21.90
2010,04,02,00,51,18.30
2010,04,02,00,52,23.50
2010,04,02,00,53,22.80
2010,04,02,00,54,22.90
2010,04,02,00,55,18.20
2010,04,02,00,56,16.70
2010,04,02,00,57,17.30
2010,04,02,00,58,19.10
2010,04,02,00,59,21.20
2010,04,02,01,00,17.50
2010,04,02,01,01,22.90
2010,04,02,01,02,19.40
2010,04,02,01,03,18.20
2010,04,02,01,04,23.40
2010,04,02,01,05,15.50
2010,04,02,01,06,17.90
2010,04,02,01,07,20.10
2010,04,02,01,08,17.90
2010,04,02,01,09,21.00
2010,04,02,01,10,15.00
2010,04,02,01,11,19.70
2010,04,02,01,12,14.90
2010,04,02,01,13,15.40
2010,04,02,01,14,16.40
2010,04,02,01,15,10.90
2010,04,02,01,16,16.00
2010,04,02,01,17,10.10
2010,04,02,01,18,19.00
2010,04,02,01,19,18.90
2010,04,02,01,20,13.20
2010,04,02,01,21,17.90
2010,04,02,01,22,22.00
2010,04,02,01,23,23.10
2010,04,02,01,24,21.10
2010,04,02,01,25,18.00
2010,04,02,01,26,20.80
2010,04,02,01,27,17.00
2010,04,02,01,28,15.20
2010,04,02,01,29,18.60
2010,04,02,01,30,17.60
2010,04,02,01,31,18.50
2010,04,02,01,32,16.80
2010,04,02,01,33,12.30
2010,04,02,01,34,15.50
2010,04,02,01,35,15.40
2010,04,02,01,36,13.80
2010,04,02,01,37,15.10
2010,04,02,01,38,21.20
2010,04,02,01,39,17.20
2010,04,02,01,40,15.40
2010,04,02,01,41,13.00
2010,04,02,01,42,13.40
2010,04,02,01,43,16.90
2010,04,02,01,44,17.60
2010,04,02,01,45,19.60
2010,04,02,01,46,18.00
2010,04,02,01,47,18.20
2010,04,02,01,48,15.80
2010,04,02,01,49,16.50
2010,04,02,01,50,12.00
2010,04,02,01,51,20.80
2010,04,02,01,52,14.50
2010,04,02,01,53,21.60
2010,04,02,01,54,20.10
2010,04,02,01,55,16.70
2010,04,02,01,56,16.30
2010,04,02,01,57,16.70
2010,04,02,01,58,15.40
2010,04,02,01,59,14.90
2010,04,02,02,00,15.70
2010,04,02,02,01,17.00
2010,04,02,02,02,16.00
2010,04,02,02,03,17.70
2010,04,02,02,04,17.20
2010,04,02,02,05,12.90
2010,04,02,02,06,14.50
2010,04,02,02,07,13.90
2010,04,02,02,08,11.30
2010,04,02,02,09,14.70
2010,04,02,02,10,13.60
2010,04,02,02,11,11.50
2010,04,02,02,12,12.90
2010,04,02,02,13,13.00
2010,04,02,02,14,12.20
2010,04,02,02,15,11.90
2010,04,02,02,16,15.60
2010,04,02,02,17,15.20
2010,04,02,02,18,10.60
2010,04,02,02,19,13.80
2010,04,02,02,20,11.40
2010,04,02,02,21,16.90
2010,04,02,02,22,9.80
2010,04,02,02,23,9.50
2010,04,02,02,24,13.70
2010,04,02,02,25,18.60
2010,04,02,02,26,14.70
2010,04,02,02,27,11.20
2010,04,02,02,28,14.40
2010,04,02,02,29,16.30
2010,04,02,02,30,12.70
2010,04,02,02,31,8.90
2010,04,02,02,32,13.50
2010,04,02,02,33,16.60
2010,04,02,02,34,12.20
2010,04,02,02,35,13.50
2010,04,02,02,36,18.90
2010,04,02,02,37,14.60
2010,04,02,02,38,16.60
2010,04,02,02,39,13.80
2010,04,02,02,40,15.00
2010,04,02,02,41,12.30
2010,04,02,02,42,16.50
2010,04,02,02,43,12.00
2010,04,02,02,44,14.70
2010,04,02,02,45,12.50
2010,04,02,02,46,16.70
2010,04,02,02,47,12.60
2010,04,02,02,48,14.00
2010,04,02,02,49,11.70
2010,04,02,02,50,17.50
2010,04,02,02,51,14.90
2010,04,02,02,52,13.20
2010,04,02,02,53,12.50
2010,04,02,02,54,17.90
2010,04,02,02,55,16.30
2010,04,02,02,56,13.80
2010,04,02,02,57,9.30
2010,04,02,02,58,16.70
2010,04,02,02,59,12.80
2010,04,02,03,00,8.90
2010,04,02,03,01,10.90
2010,04,02,03,02,14.50
2010,04,02,03,03,15.00
2010,04,02,03,04,13.60
2010,04,02,03,05,11.10
2010,04,02,03,06,12.70
2010,04,02,03,07,14.20
2010,04,02,03,08,14.10
2010,04,02,03,09,16.60
2010,04,02,03,10,17.00
2010,04,02,03,11,18.70
2010,04,02,03,12,13.90
2010,04,02,03,13,12.90
2010,04,02,03,14,13.10
2010,04,02,03,15,12.60
2010,04,02,03,16,14.80
2010,04,02,03,17,20.40
2010,04,02,03,18,15.10
2010,04,02,03,19,16.60
2010,04,02,03,20,13.00
2010,04,02,03,21,11.90
2010,04,02,03,22,16.30
2010,04,02,03,23,13.70
2010,04,02,03,24,16.20
2010,04,02,03,25,11.30
2010,04,02,03,26,18.60
2010,04,02,03,27,16.30
2010,04,02,03,28,18.70
2010,04,02,03,29,17.30
2010,04,02,03,30,20.90
2010,04,02,03,31,16.60
2010,04,02,03,32,14.20
2010,04,02,03,33,14.60
2010,04,02,03,34,15.50
2010,04,02,03,35,13.20
2010,04,02,03,36,14.30
2010,04,02,03,37,15.80
2010,04,02,03,38,15.70
2010,04,02,03,39,18.10
2010,04,02,03,40,15.00
2010,04,02,03,41,18.50
2010,04,02,03,42,19.40
2010,04,02,03,43,19.40
2010,04,02,03,44,15.60
2010,04,02,03,45,17.90
2010,04,02,03,46,13.30
2010,04,02,03,47,19.50
2010,04,02,03,48,19.60
2010,04,02,03,49,16.70
2010,04,02,03,50,16.10
2010,04,02,03,51,18.30
2010,04,02,03,52,22.50
2010,04,02,03,53,20.40
2010,04,02,03,54,18.90
2010,04,02,03,55,18.90
2010,04,02,03,56,16.20
2010,04,02,03,57,15.40
2010,04,02,03,58,16.30
2010,04,02,03,59,14.20
2010,04,02,04,00,17.10
2010,04,02,04,01,20.90
2010,04,02,04,02,17.30
2010,04,02,04,03,20.00
2010,04,02,04,04,17.00
2010,04,02,04,05,13.80
2010,04,02,04,06,15.60
2010,04,02,04,07,12.20
2010,04,02,04,08,13.80
2010,04,02,04,09,15.90
2010,04,02,04,10,17.50
2010,04,02,04,11,13.00
2010,04,02,04,12,16.70
2010,04,02,04,13,17.90
2010,04,02,04,14,17.50
2010,04,02,04,15,23.10
2010,04,02,04,16,22.40
2010,04,02,04,17,18.60
2010,04,02,04,18,15.00
2010,04,02,04,19,14.30
2010,04,02,04,20,17.30
2010,04,02,04,21,14.70
2010,04,02,04,22,22.20
2010,04,02,04,23,15.20
2010,04,02,04,24,13.50
2010,04,02,04,25,14.30
2010,04,02,04,26,19.20
2010,04,02,04,27,22.50
2010,04,02,04,28,17.80
2010,04,02,04,29,15.20
2010,04,02,04,30,24.60
2010,04,02,04,31,19.10
2010,04,02,04,32,21.50
2010,04,02,04,33,20.80
2010,04,02,04,34,19.80
2010,04,02,04,35,19.80
2010,04,02,04,36,10.00
2010,04,02,04,37,15.00
2010,04,02,04,38,17.50
2010,04,02,04,39,19.70
2010,04,02,04,40,18.90
2010,04,02,04,41,17.50
2010,04,02,04,42,17.40
2010,04,02,04,43,18.80
2010,04,02,04,44,18.30
2010,04,02,04,45,15.00
2010,04,02,04,46,15.10
2010,04,02,04,47,17.10
2010,04,02,04,48,15.70
2010,04,02,04,49,17.50
2010,04,02,04,50,13.10
2010,04,02,04,51,15.50
2010,04,02,04,52,18.50
2010,04,02,04,53,17.80
2010,04,02,04,54,10.90
2010,04,02,04,55,10.20
2010,04,02,04,56,14.20
2010,04,02,04,57,16.90
2010,04,02,04,58,18.30
2010,04,02,04,59,10.70
2010,04,02,05,00,8.40
2010,04,02,05,01,9.00
2010,04,02,05,02,13.10
2010,04,02,05,03,15.80
2010,04,02,05,04,16.30
2010,04,02,05,05,16.40
2010,04,02,05,06,17.20
2010,04,02,05,07,8.20
2010,04,02,05,08,11.80
2010,04,02,05,09,11.50
2010,04,02,05,10,13.70
2010,04,02,05,11,11.10
2010,04,02,05,12,18.10
2010,04,02,05,13,12.60
2010,04,02,05,14,12.00
2010,04,02,05,15,14.30
2010,04,02,05,16,11.80
2010,04,02,05,17,10.00
2010,04,02,05,18,11.50
2010,04,02,05,19,11.10
2010,04,02,05,20,12.60
2010,04,02,05,21,19.40
2010,04,02,05,22,11.80
2010,04,02,05,23,14.90
2010,04,02,05,24,13.10
2010,04,02,05,25,15.40
2010,04,02,05,26,10.70
2010,04,02,05,27,11.40
2010,04,02,05,28,11.80
2010,04,02,05,29,10.90
2010,04,02,05,30,12.10
2010,04,02,05,31,14.80
2010,04,02,05,32,10.50
2010,04,02,05,33,14.60
2010,04,02,05,34,17.90
2010,04,02,05,35,15.40
2010,04,02,05,36,13.80
2010,04,02,05,37,16.60
2010,04,02,05,38,12.40
2010,04,02,05,39,17.90
2010,04,02,05,40,14.70
2010,04,02,05,41,15.40
2010,04,02,05,42,16.70
2010,04,02,05,43,17.70
2010,04,02,05,44,9.70
2010,04,02,05,45,13.20
2010,04,02,05,46,9.30
2010,04,02,05,47,10.70
2010,04,02,05,48,19.20
2010,04,02,05,49,15.50
2010,04,02,05,50,15.00
2010,04,02,05,51,9.80
2010,04,02,05,52,17.10
2010,04,02,05,53,14.20
2010,04,02,05,54,15.70
2010,04,02,05,55,14.60
2010,04,02,05,56,17.40
2010,04,02,05,57,16.20
2010,04,02,05,58,17.10
2010,04,02,05,59,9.40
2010,04,02,06,00,18.20
2010,04,02,06,01,19.90
2010,04,02,06,02,20.70
2010,04,02,06,03,15.40
2010,04,02,06,04,12.70
2010,04,02,06,05,17.40
2010,04,02,06,06,11.30
2010,04,02,06,07,9.50
2010,04,02,06,08,9.50
2010,04,02,06,09,16.10
2010,04,02,06,10,13.40
2010,04,02,06,11,19.30
2010,04,02,06,12,12.90
2010,04,02,06,13,16.70
2010,04,02,06,14,17.70
2010,04,02,06,15,17.80
2010,04,02,06,16,9.00
2010,04,02,06,17,16.30
2010,04,02,06,18,17.30
2010,04,02,06,19,16.00
2010,04,02,06,20,15.10
2010,04,02,06,21,17.20
2010,04,02,06,22,19.90
2010,04,02,06,23,19.20
2010,04,02,06,24,23.70
2010,04,02,06,25,20.70
2010,04,02,06,26,22.50
2010,04,02,06,27,25.70
2010,04,02,06,28,24.20
2010,04,02,06,29,29.50
2010,04,02,06,30,28.30
2010,04,02,06,31,23.70
2010,04,02,06,32,22.90
2010,04,02,06,33,33.60
2010,04,02,06,34,20.50
2010,04,02,06,35,26.40
2010,04,02,06,36,17.50
2010,04,02,06,37,29.90
2010,04,02,06,38,25.40
2010,04,02,06,39,25.40
2010,04,02,06,40,27.00
2010,04,02,06,41,28.60
2010,04,02,06,42,25.20
2010,04,02,06,43,23.80
2010,04,02,06,44,23.10
2010,04,02,06,45,24.30
2010,04,02,06,46,25.30
2010,04,02,06,47,32.20
2010,04,02,06,48,34.30
2010,04,02,06,49,30.00
2010,04,02,06,50,24.10
2010,04,02,06,51,13.40
2010,04,02,06,52,15.80
2010,04,02,06,53,19.00
2010,04,02,06,54,21.90
2010,04,02,06,55,17.70
2010,04,02,06,56,19.60
2010,04,02,06,57,27.90
2010,04,02,06,58,23.30
2010,04,02,06,59,19.20
2010,04,02,07,00,23.70
2010,04,02,07,01,26.00
2010,04,02,07,02,19.40
2010,04,02,07,03,21.20
2010,04,02,07,04,17.20
2010,04,02,07,05,22.00
2010,04,02,07,06,19.30
2010,04,02,07,07,28.30
2010,04,02,07,08,24.80
2010,04,02,07,09,19.90
2010,04,02,07,10,29.40
2010,04,02,07,11,32.20
2010,04,02,07,12,31.20
2010,04,02,07,13,37.60
2010,04,02,07,14,26.40
2010,04,02,07,15,30.70
2010,04,02,07,16,30.40
2010,04,02,07,17,22.70
2010,04,02,07,18,27.40
2010,04,02,07,19,28.60
2010,04,02,07,20,25.30
2010,04,02,07,21,23.20
2010,04,02,07,22,25.70
2010,04,02,07,23,29.90
2010,04,02,07,24,40.50
2010,04,02,07,25,33.20
2010,04,02,07,26,27.30
2010,04,02,07,27,32.20
2010,04,02,07,28,28.40
2010,04,02,07,29,27.90
2010,04,02,07,30,22.00
2010,04,02,07,31,26.70
2010,04,02,07,32,20.20
2010,04,02,07,33,21.60
2010,04,02,07,34,28.50
2010,04,02,07,35,27.10
2010,04,02,07,36,24.10
2010,04,02,07,37,28.70
2010,04,02,07,38,27.80
2010,04,02,07,39,25.20
2010,04,02,07,40,36.60
2010,04,02,07,41,35.60
2010,04,02,07,42,42.20
2010,04,02,07,43,37.10
2010,04,02,07,44,22.00
2010,04,02,07,45,21.70
2010,04,02,07,46,28.20
2010,04,02,07,47,28.00
2010,04,02,07,48,25.10
2010,04,02,07,49,25.90
2010,04,02,07,50,24.10
2010,04,02,07,51,26.00
2010,04,02,07,52,24.40
2010,04,02,07,53,18.20
2010,04,02,07,54,22.80
2010,04,02,07,55,20.00
2010,04,02,07,56,26.60
2010,04,02,07,57,28.50
2010,04,02,07,58,26.60
2010,04,02,07,59,28.10
2010,04,02,08,00,27.70
2010,04,02,08,01,32.20
2010,04,02,08,02,35.90
2010,04,02,08,03,44.90
2010,04,02,08,04,33.90
2010,04,02,08,05,31.10
2010,04,02,08,06,36.40
2010,04,02,08,07,45.00
2010,04,02,08,08,35.90
2010,04,02,08,09,36.00
2010,04,02,08,10,21.50
2010,04,02,08,11,30.90
2010,04,02,08,12,33.60
2010,04,02,08,13,33.70
2010,04,02,08,14,25.40
2010,04,02,08,15,28.60
2010,04,02,08,16,41.00
2010,04,02,08,17,28.60
2010,04,02,08,18,23.90
2010,04,02,08,19,36.30
2010,04,02,08,20,29.50
2010,04,02,08,21,19.80
2010,04,02,08,22,32.70
2010,04,02,08,23,20.60
2010,04,02,08,24,22.80
2010,04,02,08,25,32.90
2010,04,02,08,26,30.70
2010,04,02,08,27,24.20
2010,04,02,08,28,31.50
2010,04,02,08,29,33.40
2010,04,02,08,30,27.10
2010,04,02,08,31,25.10
2010,04,02,08,32,21.80
2010,04,02,08,33,32.50
2010,04,02,08,34,44.30
2010,04,02,08,35,38.90
2010,04,02,08,36,43.70
2010,04,02,08,37,39.90
2010,04,02,08,38,44.90
2010,04,02,08,39,40.00
2010,04,02,08,40,29.30
2010,04,02,08,41,31.20
2010,04,02,08,42,30.10
2010,04,02,10,26,34.00
2010,04,02,10,27,39.20
2010,04,02,10,28,28.50
2010,04,02,10,29,24.20
2010,04,02,10,30,24.30
2010,04,02,10,31,29.60
2010,04,02,10,32,25.70
2010,04,02,10,33,22.80
2010,04,02,10,34,20.10
2010,04,02,10,35,24.00
2010,04,02,10,36,26.90
2010,04,02,10,37,31.10
2010,04,02,10,38,25.20
2010,04,02,10,39,28.40
2010,04,02,10,40,25.10
2010,04,02,10,41,22.80
2010,04,02,10,42,28.40
2010,04,02,10,43,29.60
2010,04,02,10,44,21.20
2010,04,02,10,45,23.50
2010,04,02,10,46,28.00
2010,04,02,10,47,30.30
2010,04,02,10,48,33.60
2010,04,02,10,49,27.00
2010,04,02,10,50,25.10
2010,04,02,10,51,24.90
2010,04,02,10,52,26.00
2010,04,02,10,53,25.00
2010,04,02,10,54,30.30
2010,04,02,10,55,32.80
2010,04,02,10,56,26.40
2010,04,02,10,57,25.90
2010,04,02,10,58,33.50
2010,04,02,10,59,33.40
2010,04,02,11,00,30.30
2010,04,02,11,01,27.20
2010,04,02,11,02,25.30
2010,04,02,11,03,23.00
2010,04,02,11,04,32.30
2010,04,02,11,05,19.10
2010,04,02,11,06,16.90
2010,04,02,11,07,22.10
2010,04,02,11,08,31.80
2010,04,02,11,09,26.40
2010,04,02,11,10,23.30
2010,04,02,11,11,23.60
2010,04,02,11,12,17.90
2010,04,02,11,13,22.80
2010,04,02,11,14,19.10
2010,04,02,11,15,23.20
2010,04,02,11,16,21.80
2010,04,02,11,17,13.40
2010,04,02,11,18,9.80
2010,04,02,11,19,17.40
2010,04,02,11,20,19.50
2010,04,02,11,21,20.00
2010,04,02,11,22,17.90
2010,04,02,11,23,17.50
2010,04,02,11,24,20.00
2010,04,02,11,25,23.90
2010,04,02,11,26,22.60
2010,04,02,11,27,11.60
2010,04,02,11,28,18.40
2010,04,02,11,29,18.40
2010,04,02,11,30,23.30
2010,04,02,11,31,25.00
2010,04,02,11,32,18.10
2010,04,02,11,33,20.00
2010,04,02,11,34,18.40
2010,04,02,11,35,19.40
2010,04,02,11,36,25.80
2010,04,02,11,37,25.30
2010,04,02,11,38,18.30
2010,04,02,11,39,17.70
2010,04,02,11,40,27.30
2010,04,02,11,41,30.00
2010,04,02,11,42,24.10
2010,04,02,11,43,21.10
2010,04,02,11,44,22.70
2010,04,02,11,45,20.00
2010,04,02,11,46,28.40
2010,04,02,11,47,24.90
2010,04,02,11,48,19.10
2010,04,02,11,49,21.70
2010,04,02,11,50,23.00
2010,04,02,11,51,29.20
2010,04,02,11,52,21.60
2010,04,02,11,53,34.00
2010,04,02,11,54,19.40
2010,04,02,11,55,25.40
2010,04,02,11,56,33.90
2010,04,02,11,57,25.50
2010,04,02,11,58,24.60
2010,04,02,11,59,24.00
2010,04,02,12,00,27.70
2010,04,02,12,01,27.30
2010,04,02,12,02,21.30
2010,04,02,12,03,28.10
2010,04,02,12,04,17.40
2010,04,02,12,05,25.10
2010,04,02,12,06,24.50
2010,04,02,12,07,24.60
2010,04,02,12,08,24.90
2010,04,02,12,09,23.40
2010,04,02,12,10,20.30
2010,04,02,12,11,25.40
2010,04,02,12,12,28.90
2010,04,02,12,13,35.10
2010,04,02,12,14,23.20
2010,04,02,12,15,24.30
2010,04,02,12,16,27.70
2010,04,02,12,17,29.80
2010,04,02,12,18,28.70
2010,04,02,12,19,17.50
2010,04,02,12,20,20.10
2010,04,02,12,21,27.00
2010,04,02,12,22,19.00
2010,04,02,12,23,26.20
2010,04,02,12,24,21.00
2010,04,02,12,25,25.00
2010,04,02,12,26,25.80
2010,04,02,12,27,20.80
2010,04,02,12,28,22.50
2010,04,02,12,29,31.10
2010,04,02,12,30,33.20
2010,04,02,12,31,31.90
2010,04,02,12,32,21.30
2010,04,02,12,33,28.60
2010,04,02,12,34,28.50
2010,04,02,12,35,31.80
2010,04,02,12,36,24.20
2010,04,02,12,37,20.40
2010,04,02,12,38,29.30
2010,04,02,12,39,34.40
2010,04,02,12,40,30.20
2010,04,02,12,41,24.60
2010,04,02,12,42,32.00
2010,04,02,12,43,26.60
2010,04,02,12,44,27.70
2010,04,02,12,45,30.90
2010,04,02,12,46,20.50
2010,04,02,12,47,24.40
2010,04,02,12,48,24.20
2010,04,02,12,49,28.20
2010,04,02,12,50,30.40
2010,04,02,12,51,31.50
2010,04,02,12,52,28.20
2010,04,02,12,53,29.70
2010,04,02,12,54,29.50
2010,04,02,12,55,25.20
2010,04,02,12,56,31.40
2010,04,02,12,57,28.90
2010,04,02,12,58,29.30
2010,04,02,12,59,24.90
2010,04,02,13,00,28.20
2010,04,02,13,01,30.00
2010,04,02,13,02,28.30
2010,04,02,13,03,19.50
2010,04,02,13,04,27.80
2010,04,02,13,05,42.20
2010,04,02,13,06,27.30
2010,04,02,13,07,28.70
2010,04,02,13,08,21.90
2010,04,02,13,09,20.00
2010,04,02,13,10,34.60
2010,04,02,13,11,31.80
2010,04,02,13,12,22.60
2010,04,02,13,13,32.40
2010,04,02,13,14,23.30
2010,04,02,13,15,31.20
2010,04,02,13,16,33.20
2010,04,02,13,17,24.50
2010,04,02,13,18,25.70
2010,04,02,13,19,26.90
2010,04,02,13,20,19.60
2010,04,02,13,21,20.60
2010,04,02,13,22,30.10
2010,04,02,13,23,26.10
2010,04,02,13,24,23.80
2010,04,02,13,25,23.40
2010,04,02,13,26,24.60
2010,04,02,13,27,22.90
2010,04,02,13,28,31.00
2010,04,02,13,29,24.30
2010,04,02,13,30,23.80
2010,04,02,13,31,23.70
2010,04,02,13,32,31.10
2010,04,02,13,33,26.40
2010,04,02,13,34,35.30
2010,04,02,13,35,32.00
2010,04,02,13,36,28.60
2010,04,02,13,37,33.10
2010,04,02,13,38,34.80
2010,04,02,13,39,30.10
2010,04,02,13,40,35.10
2010,04,02,13,41,34.30
2010,04,02,13,42,29.50
2010,04,02,13,43,33.80
2010,04,02,13,44,28.70
2010,04,02,13,45,28.00
2010,04,02,13,46,37.60
2010,04,02,13,47,36.90
2010,04,02,13,48,35.90
2010,04,02,13,49,30.70
2010,04,02,13,50,31.30
2010,04,02,13,51,28.90
2010,04,02,13,52,36.70
2010,04,02,13,53,34.90
2010,04,02,13,54,25.20
2010,04,02,13,55,29.10
2010,04,02,13,56,28.70
2010,04,02,13,57,30.70
2010,04,02,13,58,24.10
2010,04,02,13,59,26.60
2010,04,02,14,00,23.80
2010,04,02,14,01,24.50
2010,04,02,14,02,22.90
2010,04,02,14,03,21.60
2010,04,02,14,04,24.80
2010,04,02,14,05,25.90
2010,04,02,14,06,27.60
2010,04,02,14,07,23.70
2010,04,02,14,08,27.00
2010,04,02,14,09,23.40
2010,04,02,14,10,21.20
2010,04,02,14,11,24.20
2010,04,02,14,12,27.90
2010,04,02,14,13,28.20
2010,04,02,14,14,17.50
2010,04,02,14,15,21.10
2010,04,02,14,16,19.60
2010,04,02,14,17,22.30
2010,04,02,14,18,24.40
2010,04,02,14,19,26.70
2010,04,02,14,20,25.30
2010,04,02,14,21,29.50
2010,04,02,14,22,29.60
2010,04,02,14,23,34.60
2010,04,02,14,24,27.30
2010,04,02,14,25,25.20
2010,04,02,14,26,23.90
2010,04,02,14,27,31.60
2010,04,02,14,28,26.60
2010,04,02,14,29,28.80
2010,04,02,14,30,27.20
2010,04,02,14,31,23.80
2010,04,02,14,32,29.40
2010,04,02,14,33,22.90
2010,04,02,14,34,23.80
2010,04,02,14,35,26.90
2010,04,02,14,36,24.10
2010,04,02,14,37,27.70
2010,04,02,14,38,39.30
2010,04,02,14,39,31.10
2010,04,02,14,40,32.50
2010,04,02,14,41,24.10
2010,04,02,14,42,16.30
2010,04,02,14,43,32.80
2010,04,02,14,44,26.70
2010,04,02,14,45,29.10
2010,04,02,14,46,30.70
2010,04,02,14,47,34.60
2010,04,02,14,48,38.70
2010,04,02,14,49,33.20
2010,04,02,14,50,27.40
2010,04,02,14,51,22.10
2010,04,02,14,52,28.30
2010,04,02,14,53,31.70
2010,04,02,14,54,32.30
2010,04,02,14,55,26.70
2010,04,02,14,56,32.20
2010,04,02,14,57,33.50
2010,04,02,14,58,31.40
2010,04,02,14,59,21.30
2010,04,02,15,00,22.60
2010,04,02,15,01,38.40
2010,04,02,15,02,33.80
2010,04,02,15,03,29.10
2010,04,02,15,04,27.10
2010,04,02,15,05,36.20
2010,04,02,15,06,30.30
2010,04,02,15,07,22.10
2010,04,02,15,08,31.50
2010,04,02,15,09,30.50
2010,04,02,15,10,31.00
2010,04,02,15,11,30.70
2010,04,02,15,12,30.70
2010,04,02,15,13,27.40
2010,04,02,15,14,28.90
2010,04,02,15,15,32.00
2010,04,02,15,16,34.90
2010,04,02,15,17,27.90
2010,04,02,15,18,43.90
2010,04,02,15,19,37.20
2010,04,02,15,20,40.20
2010,04,02,15,21,37.20
2010,04,02,15,22,26.50
2010,04,02,15,23,24.00
2010,04,02,15,24,31.00
2010,04,02,15,25,27.50
2010,04,02,15,26,35.30
2010,04,02,15,27,29.00
2010,04,02,15,28,26.30
2010,04,02,15,29,21.70
2010,04,02,15,30,18.80
2010,04,02,15,31,27.20
2010,04,02,15,32,24.60
2010,04,02,15,33,23.00
2010,04,02,15,34,23.80
2010,04,02,15,35,24.80
2010,04,02,15,36,26.30
2010,04,02,15,37,22.10
2010,04,02,15,38,28.90
2010,04,02,15,39,27.20
2010,04,02,15,40,27.80
2010,04,02,15,41,28.20
2010,04,02,15,42,31.80
2010,04,02,15,43,25.60
2010,04,02,15,44,20.60
2010,04,02,15,45,23.60
2010,04,02,15,46,28.60
2010,04,02,15,47,25.80
2010,04,02,15,48,30.30
2010,04,02,15,49,23.90
2010,04,02,15,50,26.50
2010,04,02,15,51,18.00
2010,04,02,15,52,22.60
2010,04,02,15,53,20.80
2010,04,02,15,54,29.60
2010,04,02,15,55,32.00
2010,04,02,15,56,25.60
2010,04,02,15,57,23.50
2010,04,02,15,58,27.70
2010,04,02,15,59,24.20
2010,04,02,16,00,26.60
2010,04,02,16,01,29.80
2010,04,02,16,02,23.30
2010,04,02,16,03,30.50
2010,04,02,16,04,22.80
2010,04,02,16,05,24.20
2010,04,02,16,06,17.40
2010,04,02,16,07,20.70
2010,04,02,16,08,32.00
2010,04,02,16,09,25.10
2010,04,02,16,10,20.20
2010,04,02,16,11,27.70
2010,04,02,16,12,24.80
2010,04,02,16,13,26.70
2010,04,02,16,14,26.70
2010,04,02,16,15,23.70
2010,04,02,16,16,28.60
2010,04,02,16,17,22.50
2010,04,02,16,18,20.20
2010,04,02,16,19,23.40
2010,04,02,16,20,24.60
2010,04,02,16,21,22.00
2010,04,02,16,22,26.00
2010,04,02,16,23,21.90
2010,04,02,16,24,14.70
2010,04,02,16,25,23.30
2010,04,02,16,26,28.30
2010,04,02,16,27,27.20
2010,04,02,16,28,24.10
2010,04,02,16,29,24.50
2010,04,02,16,30,24.70
2010,04,02,16,31,28.60
2010,04,02,16,32,30.30
2010,04,02,16,33,26.30
2010,04,02,16,34,25.80
2010,04,02,16,35,29.70
2010,04,02,16,36,24.10
2010,04,02,16,37,30.30
2010,04,02,16,38,23.40
2010,04,02,16,39,32.60
2010,04,02,16,40,26.40
2010,04,02,16,41,30.60
2010,04,02,16,42,26.20
2010,04,02,16,43,25.60
2010,04,02,16,44,30.90
2010,04,02,16,45,23.30
2010,04,02,16,46,23.00
2010,04,02,16,47,19.40
2010,04,02,16,48,24.20
2010,04,02,16,49,34.70
2010,04,02,16,50,36.30
2010,04,02,16,51,30.60
2010,04,02,16,52,35.20
2010,04,02,16,53,25.10
2010,04,02,16,54,25.50
2010,04,02,16,55,31.50
2010,04,02,16,56,34.10
2010,04,02,16,57,22.40
2010,04,02,16,58,23.00
2010,04,02,16,59,24.10
2010,04,02,17,00,33.10
2010,04,02,17,01,30.20
2010,04,02,17,02,28.40
2010,04,02,17,03,22.00
2010,04,02,17,04,28.30
2010,04,02,17,05,15.00
2010,04,02,17,06,31.90
2010,04,02,17,07,29.80
2010,04,02,17,08,27.30
2010,04,02,17,09,31.30
2010,04,02,17,10,26.70
2010,04,02,17,11,28.60
2010,04,02,17,12,24.30
2010,04,02,17,13,29.70
2010,04,02,17,14,24.30
2010,04,02,17,15,24.10
2010,04,02,17,16,23.30
2010,04,02,17,17,27.00
2010,04,02,17,18,24.20
2010,04,02,17,19,16.00
2010,04,02,17,20,17.90
2010,04,02,17,21,22.50
2010,04,02,17,22,29.40
2010,04,02,17,23,24.20
2010,04,02,17,24,22.80
2010,04,02,17,25,26.50
2010,04,02,17,26,24.10
2010,04,02,17,27,20.50
2010,04,02,17,28,22.40
2010,04,02,17,29,19.30
2010,04,02,17,30,27.10
2010,04,02,17,31,24.80
2010,04,02,17,32,25.90
2010,04,02,17,33,31.20
2010,04,02,17,34,27.10
2010,04,02,17,35,30.60
2010,04,02,17,36,25.90
2010,04,02,17,37,23.30
2010,04,02,17,38,28.50
2010,04,02,17,39,21.20
2010,04,02,17,40,21.80
2010,04,02,17,41,21.50
2010,04,02,17,42,24.10
2010,04,02,17,43,23.60
2010,04,02,17,44,23.10
2010,04,02,17,45,28.10
2010,04,02,17,46,19.80
2010,04,02,17,47,28.20
2010,04,02,17,48,20.00
2010,04,02,17,49,24.80
2010,04,02,17,50,20.00
2010,04,02,17,51,25.60
2010,04,02,17,52,25.10
2010,04,02,17,53,23.80
2010,04,02,17,54,27.10
2010,04,02,17,55,24.10
2010,04,02,17,56,24.90
2010,04,02,17,57,23.10
2010,04,02,17,58,24.50
2010,04,02,17,59,23.80
2010,04,02,18,00,21.40
2010,04,02,18,01,21.70
2010,04,02,18,02,19.80
2010,04,02,18,03,20.70
2010,04,02,18,04,22.00
2010,04,02,18,05,21.30
2010,04,02,18,06,22.20
2010,04,02,18,07,23.70
2010,04,02,18,08,21.80
2010,04,02,18,09,22.30
2010,04,02,18,10,23.60
2010,04,02,18,11,19.40
2010,04,02,18,12,22.00
2010,04,02,18,13,21.00
2010,04,02,18,14,19.10
2010,04,02,18,15,18.80
2010,04,02,18,16,22.80
2010,04,02,18,17,26.00
2010,04,02,18,18,24.10
2010,04,02,18,19,23.40
2010,04,02,18,20,11.80
2010,04,02,18,21,20.00
2010,04,02,18,22,20.20
2010,04,02,18,23,20.40
2010,04,02,18,24,20.00
2010,04,02,18,25,16.40
2010,04,02,18,26,16.60
2010,04,02,18,27,21.00
2010,04,02,18,28,26.60
2010,04,02,18,29,14.70
2010,04,02,18,30,12.30
2010,04,02,18,31,20.60
2010,04,02,18,32,22.80
2010,04,02,18,33,20.40
2010,04,02,18,34,20.60
2010,04,02,18,35,22.00
2010,04,02,18,36,24.80
2010,04,02,18,37,19.20
2010,04,02,18,38,16.70
2010,04,02,18,39,15.10
2010,04,02,18,40,18.40
2010,04,02,18,41,18.30
2010,04,02,18,42,20.50
2010,04,02,18,43,17.40
2010,04,02,18,44,19.10
2010,04,02,18,45,22.70
2010,04,02,18,46,19.60
2010,04,02,18,47,17.10
2010,04,02,18,48,15.90
2010,04,02,18,49,20.60
2010,04,02,18,50,15.90
2010,04,02,18,51,18.00
2010,04,02,18,52,18.20
2010,04,02,18,53,20.20
2010,04,02,18,54,20.60
2010,04,02,18,55,11.90
2010,04,02,18,56,9.90
2010,04,02,18,57,14.60
2010,04,02,18,58,16.10
2010,04,02,18,59,12.30
2010,04,02,19,00,14.60
2010,04,02,19,01,14.40
2010,04,02,19,02,11.80
2010,04,02,19,03,10.20